Change the Weather History Date:

Saturday, October 20, 2012

  Actual Average Record
Temperature  
Mean Temperature 46 °F 51 °F  
Max Temperature 58 °F 62 °F 84 °F (2003)
Min Temperature 34 °F 41 °F 27 °F (2002)
Degree Days  
Heating Degree Days 19 14  
Month to date heating degree days 298 225  
Since 1 July heating degree days 455 336  
Cooling Degree Days 0 0  
Month to date cooling degree days 0 11  
Year to date cooling degree days 1089 814  
Moisture  
Dew Point 39 °F    
Average Humidity 84    
Maximum Humidity 100    
Minimum Humidity 59    
Precipitation  
Precipitation 0.00 in 0.10 in 0.17 in (2008)
Month to date precipitation 2.66 2.12  
Year to date precipitation 18.23 31.04  
Sea Level Pressure  
Sea Level Pressure 29.81 in    
Wind  
Wind Speed 5 mph (WSW)    
Max Wind Speed 14 mph    
Max Gust Speed 18 mph    
Visibility 10 miles    
Events      
T = Trace of Precipitation, MM = Missing Value Source: NWS Daily Summary

Daily Weather History Graph

Daily Weather History Graph

Search for Another Location

Airport or City:

Trip Planner

Search our weather history database for the weather conditions in past years. The results will help you decide how hot, cold, wet, or windy it might be!

Date:

Astronomy

Oct. 20, 2012 Rise Set
Actual Time 7:11 AM CDT 6:03 PM CDT
Civil Twilight 6:43 AM CDT 6:31 PM CDT
Nautical Twilight 6:10 AM CDT 7:03 PM CDT
Astronomical Twilight 5:38 AM CDT 7:35 PM CDT
Moon 12:50 PM CDT (10/20) 10:46 PM CDT (10/20)
Length of Visible Light 11h 47m
Length of Day
10h 51m
Waxing Crescent, 34% of the Moon is Illuminated
Oct 20
Waxing Crescent
Oct 21
First Quarter
Oct 29
Full
Nov 6
Last Quarter
Nov 13
New

Hourly Weather History & Observations

Time (CDT) Temp. Windchill Dew Point Humidity Pressure Visibility Wind Dir Wind Speed Gust Speed Precip Events Conditions
12:52 AM 39.9 °F 36.7 °F 39.0 °F 97% 29.67 in 10.0 mi WNW 4.6 mph - N/A   Clear
1:52 AM 39.9 °F 35.1 °F 39.0 °F 97% 29.69 in 10.0 mi West 6.9 mph - N/A   Partly Cloudy
2:52 AM 39.0 °F 35.7 °F 37.0 °F 93% 29.69 in 10.0 mi West 4.6 mph - N/A   Clear
3:52 AM 37.9 °F - 37.0 °F 97% 29.70 in 10.0 mi Calm Calm - N/A   Clear
4:52 AM 37.0 °F 33.3 °F 36.0 °F 96% 29.72 in 10.0 mi WSW 4.6 mph - N/A   Scattered Clouds
5:52 AM 37.0 °F 34.5 °F 36.0 °F 96% 29.74 in 10.0 mi West 3.5 mph - N/A   Scattered Clouds
6:52 AM 34.0 °F - 34.0 °F 100% 29.76 in 8.0 mi Calm Calm - N/A   Clear
7:52 AM 36.0 °F 32.1 °F 35.1 °F 97% 29.78 in 8.0 mi SW 4.6 mph - N/A   Clear
8:52 AM 41.0 °F 36.4 °F 39.0 °F 93% 29.80 in 10.0 mi West 6.9 mph - N/A   Clear
9:52 AM 46.0 °F 42.5 °F 42.1 °F 86% 29.81 in 10.0 mi West 6.9 mph - N/A   Clear
10:52 AM 51.1 °F - 43.0 °F 74% 29.82 in 10.0 mi West 8.1 mph - N/A   Clear
11:52 AM 54.0 °F - 42.1 °F 64% 29.83 in 10.0 mi West 9.2 mph - N/A   Partly Cloudy
12:52 PM 55.0 °F - 41.0 °F 59% 29.82 in 10.0 mi WNW 8.1 mph - N/A   Scattered Clouds
2:52 PM 55.0 °F - 41.0 °F 59% 29.82 in 10.0 mi West 6.9 mph - N/A   Scattered Clouds
4:52 PM 55.9 °F - 42.1 °F 60% 29.85 in 10.0 mi WSW 9.2 mph - N/A   Mostly Cloudy
5:52 PM 53.1 °F - 41.0 °F 64% 29.87 in 10.0 mi WSW 6.9 mph - N/A   Mostly Cloudy
6:52 PM 48.0 °F - 39.0 °F 71% 29.88 in 10.0 mi SW 5.8 mph - N/A   Clear
8:52 PM 44.1 °F 40.8 °F 39.0 °F 82% 29.91 in 10.0 mi SW 5.8 mph - N/A   Clear
9:52 PM 42.1 °F - 37.9 °F 85% 29.91 in 10.0 mi Calm Calm - N/A   Clear
10:52 PM 39.0 °F 36.8 °F 37.9 °F 96% 29.93 in 10.0 mi South 3.5 mph - N/A   Clear
11:52 PM 37.9 °F - 36.0 °F 93% 29.95 in 10.0 mi Calm Calm - N/A   Clear